#timestamp,LO_Frequency,Hit,StdDev 
1537135215.4,286047002.8,N
1537135235.2,286046999.9,N
1537135255.1,286046998.1,N
1537135256.0,286046998.1,N
1537135275.8,286047002.4,N
1537135295.7,286046999.9,N
1537135315.5,286047001.0,N
1537135335.3,286046996.5,N
1537135355.2,286046997.5,N
1537135375.0,286046997.4,N
1537135375.9,286046997.4,N
1537135395.7,286046999.3,N
1537135415.6,286046999.3,N
1537135435.4,286046998.3,N
1537135455.3,286046998.4,N
1537135475.1,286046996.8,N
1537135495.8,286046997.1,N
1537135515.7,286046999.6,N
1537135535.5,286046996.7,N
1537135555.4,286046995.1,N
1537135575.2,286046997.4,N
1537135595.0,286046996.9,N
1537135595.9,286046996.9,N
1537135615.8,286046999.3,N
1537135635.6,286046996.7,N
1537135655.4,286047000.4,N
1537135675.3,286047000.0,N
1537135695.1,286046998.8,N
1537135715.9,286046998.6,N
1537135735.7,286047000.4,N
1537135755.5,286046998.7,N
1537135775.4,286047001.2,N
1537135795.2,286047000.0,N
1537135815.0,286047000.4,N
1537135815.9,286047000.4,N
1537135835.8,286047000.0,N
1537135855.6,286047000.9,N
1537135875.5,286047000.4,N
1537135895.3,286047000.9,N
1537135915.1,286047000.0,N
1537135935.9,286046999.8,N
1537135955.7,286047000.9,N
1537135975.5,286046998.5,N
1537135995.4,286047000.9,N
1537136015.2,286047000.8,N
1537136035.1,286047000.7,N
1537136036.0,286047000.7,N
1537136055.8,286047002.5,N
1537136075.6,286047006.0,Y
1537136095.5,286047005.5,P
1537136115.3,286047005.4,N
1537136135.1,286047006.0,N
1537136155.9,286047004.5,N
1537136175.7,286047006.7,N
1537136195.6,286047008.7,Y
1537136215.4,286047002.4,P
1537136235.2,286047002.0,N
1537136255.1,286047000.1,N
1537136256.0,286047000.1,N
1537136275.8,286046999.8,N
1537136295.6,286047000.6,N
1537136315.5,286046998.9,N
1537136335.3,286046998.1,N
1537136355.2,286047001.2,N
1537136375.9,286047001.2,N
1537136395.7,286046998.5,N
1537136415.6,286046999.3,N
1537136435.4,286046999.2,N
1537136455.2,286046998.1,N
1537136475.1,286046999.9,N
1537136476.0,286046999.9,N
1537136495.8,286047000.2,N
1537136515.7,286046998.5,N
1537136535.5,286046998.2,N
1537136555.3,286047000.9,N
1537136575.2,286047000.5,N
1537136595.9,286046999.9,N
1537136615.7,286047002.3,N
1537136635.6,286047003.9,N
1537136655.4,286047003.9,N
1537136675.2,286047005.3,N
1537136695.1,286047004.7,N
1537136696.0,286047004.7,N
1537136715.8,286047009.2,Y
1537136735.7,286047010.3,P
1537136755.5,286047009.8,N
1537136775.3,286047009.9,N
1537136795.2,286047010.0,N
1537136815.0,286047010.0,N
1537136815.9,286047010.0,N
1537136835.8,286047010.8,Y
1537136855.6,286047001.7,P
1537136875.4,286047003.6,N
1537136895.3,286047005.9,N
1537136915.1,286047004.5,N
1537136935.8,286047005.9,N
1537136955.7,286047005.7,N
1537136975.5,286047004.8,N
1537136995.4,286047005.8,Y
1537137015.2,286047000.9,P
1537137035.0,286046996.5,N
1537137035.9,286046996.5,N
1537137055.8,286046998.9,N
1537137075.6,286046999.6,N
1537137095.4,286046996.9,N
1537137115.3,286046999.0,N
1537137135.1,286046999.1,N
1537137155.9,286046999.6,N
1537137175.7,286046997.8,N
1537137195.5,286046998.0,N
1537137215.4,286046997.6,N
1537137235.2,286046993.4,Y
1537137255.1,286046997.4,P
1537137256.0,286046997.4,P
1537137275.8,286046994.9,P
1537137295.6,286046997.3,N
1537137315.5,286046996.1,Y
1537137335.3,286046998.2,P
1537137355.1,286047000.2,N
1537137375.9,286046999.3,N
1537137395.7,286046996.7,N
1537137415.6,286046998.9,N
1537137435.4,286047001.0,N
1537137455.2,286047001.0,N
1537137475.1,286046999.1,N
1537137476.0,286046999.1,N
1537137495.8,286046996.9,N
1537137515.6,286046997.3,N
1537137535.5,286046996.2,N
1537137555.3,286046996.0,N
1537137575.1,286046997.0,N
1537137595.9,286046996.6,N
1537137615.7,286046996.7,N
1537137635.6,286046996.8,N
1537137655.4,286046999.3,N
1537137675.2,286047000.0,N
1537137695.1,286046999.3,N
1537137696.0,286046999.3,N
1537137715.8,286046997.2,N
1537137735.6,286046997.0,N
1537137755.5,286046997.6,N
1537137775.3,286046999.5,N
1537137795.2,286046998.1,N
1537137815.9,286047000.5,N
1537137835.7,286047001.2,N
1537137855.6,286046999.8,N
1537137875.4,286047000.4,N
1537137895.2,286046998.9,N
1537137915.1,286047000.3,N
1537137916.0,286047000.3,N
1537137935.8,286047000.3,N
1537137955.7,286047001.0,N
1537137975.5,286047000.2,N
1537137995.3,286047001.0,N
1537138015.2,286046999.5,N
1537138035.9,286046998.1,N
1537138055.7,286046998.2,N
1537138075.6,286046998.3,N
1537138095.4,286046999.5,N
1537138115.2,286047001.2,N
1537138135.1,286046999.1,N
1537138136.0,286046999.1,N
1537138155.8,286046997.4,N
1537138175.7,286046995.1,Y
1537138195.5,286046995.4,P
1537138215.3,286046995.6,N
1537138235.2,286046995.5,N
1537138255.0,286046993.3,Y
1537138255.9,286046993.3,P
1537138275.8,286046998.4,N
1537138295.6,286047000.0,N
1537138315.4,286046998.3,N
1537138335.3,286047000.7,N
1537138355.1,286046999.9,N
1537138375.8,286047000.1,N
1537138395.7,286047002.0,N
1537138415.5,286047001.6,N
1537138435.4,286047004.4,N
1537138455.2,286047001.3,N
1537138475.0,286047002.3,N
1537138475.9,286047002.3,N
1537138495.8,286047000.2,N
1537138515.6,286047002.4,N
1537138535.4,286047001.5,N
1537138555.3,286047001.3,N
1537138575.1,286047000.5,N
1537138595.9,286047000.7,N
1537138615.7,286046999.7,N
1537138635.5,286047002.3,N
1537138655.4,286047003.3,N
1537138675.2,286047004.7,N
1537138695.0,286047004.5,N
1537138695.9,286047004.5,N
1537138715.8,286047007.0,N
1537138735.6,286047007.6,N
1537138755.5,286047007.2,N
1537138775.3,286047004.9,N
1537138795.1,286047005.1,N
